THY9BA LWSK-LTFM

Flight info

Callsign THY9BA
Flight time 0h 58m
Altitude 19000
Route SIN T215 VELBA/N0460F310 P127 AYTEK
Aircraft B738/M-SDE2E3FGHIRWXY/LB1

Departure

Time 2026-05-05 07:09
Airport Skopje International Airport (LWSK)

Arrival

Time 2026-05-05 08:08
Airport İstanbul Airport (LTFM)
Time Latitude Longitude Altitude Speed Heading
2026-05-05 07:07 41.94854 21.62600 778 ft 14 kts 160°
2026-05-05 07:08 41.94779 21.62686 777 ft 15 kts 148°
2026-05-05 07:08 41.94701 21.62659 776 ft 14 kts 287°
2026-05-05 07:08 41.94791 21.62620 778 ft 14 kts 348°
2026-05-05 07:08 41.94922 21.62575 778 ft 34 kts 345°
2026-05-05 07:09 41.95340 21.62432 780 ft 95 kts 346°
2026-05-05 07:09 41.96182 21.62137 788 ft 153 kts 346°
2026-05-05 07:09 41.97323 21.61748 1139 ft 175 kts 345°
2026-05-05 07:09 41.98502 21.61340 1927 ft 175 kts 345°
2026-05-05 07:10 41.99695 21.60920 2716 ft 181 kts 344°
2026-05-05 07:10 42.01009 21.60637 3161 ft 206 kts
2026-05-05 07:10 42.02384 21.61449 3361 ft 234 kts 45°
2026-05-05 07:10 42.03087 21.63463 3761 ft 248 kts 85°
2026-05-05 07:11 42.02772 21.65806 4048 ft 270 kts 119°
2026-05-05 07:11 42.01451 21.67559 4852 ft 270 kts 154°
2026-05-05 07:11 41.99615 21.68058 5623 ft 274 kts 186°
2026-05-05 07:11 41.97812 21.67269 6516 ft 274 kts 206°
2026-05-05 07:12 41.96074 21.66201 7305 ft 278 kts 199°
2026-05-05 07:12 41.94167 21.65584 7997 ft 285 kts 186°
2026-05-05 07:12 41.92197 21.65558 8867 ft 283 kts 168°
2026-05-05 07:12 41.90407 21.66641 9551 ft 287 kts 137°
2026-05-05 07:13 41.89209 21.68759 10296 ft 288 kts 112°
2026-05-05 07:13 41.88764 21.71408 10713 ft 302 kts 90°
2026-05-05 07:13 41.88977 21.74312 10930 ft 323 kts 77°
2026-05-05 07:13 41.89505 21.77308 11337 ft 337 kts 75°
2026-05-05 07:14 41.90042 21.80458 11616 ft 356 kts 77°
2026-05-05 07:14 41.90549 21.83755 12152 ft 363 kts 77°
2026-05-05 07:14 41.91038 21.87089 12919 ft 366 kts 77°
2026-05-05 07:14 41.91517 21.90478 13469 ft 374 kts 77°
2026-05-05 07:15 41.92016 21.93926 14110 ft 377 kts 77°
2026-05-05 07:15 41.92514 21.97402 14723 ft 381 kts 77°
2026-05-05 07:15 41.92845 21.99723 15118 ft 383 kts 77°
2026-05-05 07:15 41.93347 22.03238 15762 ft 385 kts 77°
2026-05-05 07:16 41.93855 22.06781 16371 ft 388 kts 77°
2026-05-05 07:16 41.94368 22.10354 16920 ft 392 kts 77°
2026-05-05 07:16 41.94887 22.13972 17498 ft 396 kts 77°
2026-05-05 07:16 41.95415 22.17624 18101 ft 399 kts 77°
2026-05-05 07:17 41.95945 22.21303 18634 ft 403 kts 77°
2026-05-05 07:17 41.96474 22.25018 19109 ft 407 kts 76°
2026-05-05 07:17 41.97004 22.28768 19589 ft 410 kts 76°
2026-05-05 07:17 41.97535 22.32548 20069 ft 414 kts 76°
2026-05-05 07:18 41.98059 22.36366 20509 ft 418 kts 78°
2026-05-05 07:18 41.98222 22.40290 20961 ft 425 kts 88°
2026-05-05 07:18 41.98097 22.44275 21409 ft 428 kts 90°
2026-05-05 07:18 41.97923 22.48289 21863 ft 432 kts 90°
2026-05-05 07:19 41.97755 22.52335 22292 ft 435 kts 89°
2026-05-05 07:19 41.97608 22.56410 22733 ft 438 kts 89°
2026-05-05 07:19 41.97481 22.60505 23162 ft 441 kts 89°
2026-05-05 07:19 41.97365 22.64631 23571 ft 444 kts 88°
2026-05-05 07:20 41.97254 22.68797 23919 ft 447 kts 88°
2026-05-05 07:20 41.97140 22.72990 24257 ft 450 kts 88°
2026-05-05 07:20 41.97021 22.77203 24598 ft 453 kts 88°
2026-05-05 07:20 41.96900 22.81446 24949 ft 455 kts 88°
2026-05-05 07:21 41.96777 22.85707 25272 ft 458 kts 88°
2026-05-05 07:21 41.96706 22.89989 25549 ft 459 kts 84°
2026-05-05 07:21 41.96850 22.94282 25857 ft 460 kts 82°
2026-05-05 07:21 41.97082 22.98571 26170 ft 462 kts 81°
2026-05-05 07:22 41.97345 23.02881 26462 ft 464 kts 81°
2026-05-05 07:22 41.97605 23.07161 26749 ft 467 kts 81°
2026-05-05 07:22 41.97856 23.11518 27051 ft 469 kts 81°
2026-05-05 07:22 41.98093 23.15899 27369 ft 471 kts 81°
2026-05-05 07:23 41.98319 23.20300 27644 ft 473 kts 82°
2026-05-05 07:23 41.98539 23.24723 27919 ft 475 kts 82°
2026-05-05 07:23 41.98753 23.29148 28274 ft 475 kts 82°
2026-05-05 07:23 41.98962 23.33567 28710 ft 473 kts 82°
2026-05-05 07:24 41.99169 23.37976 29197 ft 471 kts 81°
2026-05-05 07:24 41.99374 23.42357 29609 ft 470 kts 81°
2026-05-05 07:24 41.99580 23.46747 29987 ft 470 kts 81°
2026-05-05 07:24 41.99783 23.51121 30360 ft 468 kts 81°
2026-05-05 07:25 41.99984 23.55484 30711 ft 467 kts 81°
2026-05-05 07:25 42.00184 23.59851 30993 ft 467 kts 81°
2026-05-05 07:25 42.00384 23.64217 31110 ft 470 kts 81°
2026-05-05 07:26 42.00781 23.73018 31102 ft 472 kts 82°
2026-05-05 07:26 42.01162 23.81755 31096 ft 465 kts 82°
2026-05-05 07:27 42.01538 23.90433 31085 ft 465 kts 82°
2026-05-05 07:27 42.01909 23.99124 31095 ft 466 kts 82°
2026-05-05 07:28 42.02274 24.07830 31098 ft 467 kts 82°
2026-05-05 07:28 42.02632 24.16548 31084 ft 467 kts 83°
2026-05-05 07:29 42.02983 24.25272 31077 ft 468 kts 83°
2026-05-05 07:29 42.03327 24.33998 31074 ft 467 kts 83°
2026-05-05 07:30 42.03665 24.42725 31087 ft 467 kts 83°
2026-05-05 07:30 42.04159 24.55781 31075 ft 468 kts 83°
2026-05-05 07:31 42.04481 24.64532 31075 ft 468 kts 83°
2026-05-05 07:31 42.04797 24.73277 31076 ft 468 kts 83°
2026-05-05 07:32 42.05107 24.82023 31074 ft 468 kts 83°
2026-05-05 07:32 42.05134 24.90787 31071 ft 472 kts 92°
2026-05-05 07:33 42.04221 24.99549 31073 ft 473 kts 95°
2026-05-05 07:33 42.03256 25.08292 31071 ft 473 kts 95°
2026-05-05 07:34 42.02350 25.17042 31073 ft 472 kts 94°
2026-05-05 07:34 42.01468 25.25781 31073 ft 472 kts 94°
2026-05-05 07:35 42.00577 25.34522 31087 ft 472 kts 94°
2026-05-05 07:35 41.99673 25.43265 31072 ft 472 kts 95°
2026-05-05 07:36 41.98189 25.51895 31077 ft 475 kts 102°
2026-05-05 07:36 41.96391 25.60388 31071 ft 476 kts 103°
2026-05-05 07:37 41.94600 25.68947 31079 ft 476 kts 102°
2026-05-05 07:37 41.92852 25.77517 31067 ft 476 kts 102°
2026-05-05 07:38 41.91116 25.86087 31075 ft 475 kts 102°
2026-05-05 07:38 41.89375 25.94643 31069 ft 475 kts 102°
2026-05-05 07:39 41.87623 26.03200 31063 ft 475 kts 102°
2026-05-05 07:39 41.85867 26.11741 31071 ft 475 kts 103°
2026-05-05 07:40 41.84099 26.20310 30374 ft 480 kts 103°
2026-05-05 07:40 41.83209 26.24607 29648 ft 478 kts 103°
2026-05-05 07:40 41.82326 26.28858 29473 ft 465 kts 103°
2026-05-05 07:41 41.81464 26.32996 29147 ft 459 kts 103°
2026-05-05 07:41 41.80590 26.37139 28968 ft 467 kts 104°
2026-05-05 07:41 41.79525 26.41312 28441 ft 477 kts 108°
2026-05-05 07:41 41.78338 26.45448 27987 ft 474 kts 109°
2026-05-05 07:42 41.77162 26.49535 27565 ft 467 kts 108°
2026-05-05 07:42 41.76030 26.53577 27119 ft 461 kts 108°
2026-05-05 07:42 41.74830 26.57547 26692 ft 459 kts 114°
2026-05-05 07:42 41.73213 26.61226 26264 ft 459 kts 122°
2026-05-05 07:43 41.71421 26.64750 25853 ft 457 kts 123°
2026-05-05 07:43 41.69625 26.68243 25432 ft 455 kts 123°
2026-05-05 07:43 41.67846 26.71746 25020 ft 454 kts 122°
2026-05-05 07:43 41.66096 26.75246 24576 ft 452 kts 122°
2026-05-05 07:44 41.64357 26.78747 24173 ft 451 kts 122°
2026-05-05 07:44 41.62639 26.82249 23760 ft 449 kts 121°
2026-05-05 07:44 41.60980 26.85775 23268 ft 447 kts 120°
2026-05-05 07:44 41.59351 26.89315 22833 ft 450 kts 120°
2026-05-05 07:45 41.57697 26.92933 22398 ft 461 kts 120°
2026-05-05 07:45 41.56013 26.96609 21948 ft 463 kts 120°
2026-05-05 07:45 41.54357 27.00204 21506 ft 458 kts 120°
2026-05-05 07:45 41.52671 27.03845 21074 ft 452 kts 120°
2026-05-05 07:46 41.51021 27.07396 20661 ft 448 kts 119°
2026-05-05 07:46 41.49385 27.10907 20250 ft 443 kts 119°
2026-05-05 07:46 41.47764 27.14380 19840 ft 440 kts 119°
2026-05-05 07:46 41.46155 27.17825 19472 ft 436 kts 119°
2026-05-05 07:47 41.44576 27.21200 19067 ft 435 kts 119°
2026-05-05 07:47 41.42961 27.24652 18652 ft 432 kts 118°
2026-05-05 07:47 41.41399 27.27983 18234 ft 427 kts 118°
2026-05-05 07:47 41.39831 27.31325 17784 ft 423 kts 118°
2026-05-05 07:48 41.38281 27.34626 17370 ft 419 kts 118°
2026-05-05 07:48 41.36738 27.37909 16968 ft 416 kts 118°
2026-05-05 07:48 41.35209 27.41160 16582 ft 413 kts 118°
2026-05-05 07:48 41.33687 27.44391 16200 ft 411 kts 118°
2026-05-05 07:49 41.32174 27.47602 15833 ft 409 kts 118°
2026-05-05 07:49 41.30661 27.50808 15450 ft 409 kts 118°
2026-05-05 07:49 41.29152 27.54001 15069 ft 408 kts 118°
2026-05-05 07:49 41.27645 27.57188 14689 ft 407 kts 118°
2026-05-05 07:50 41.26139 27.60369 14315 ft 406 kts 118°
2026-05-05 07:50 41.24637 27.63537 13936 ft 404 kts 118°
2026-05-05 07:50 41.23143 27.66686 13523 ft 402 kts 118°
2026-05-05 07:50 41.21655 27.69817 13124 ft 399 kts 118°
2026-05-05 07:51 41.20177 27.72923 12739 ft 396 kts 118°
2026-05-05 07:51 41.18711 27.76001 12405 ft 392 kts 118°
2026-05-05 07:51 41.17263 27.79041 12085 ft 388 kts 118°
2026-05-05 07:51 41.15815 27.82078 11618 ft 389 kts 118°
2026-05-05 07:52 41.14374 27.85097 11232 ft 386 kts 118°
2026-05-05 07:52 41.12946 27.88084 10857 ft 377 kts 118°
2026-05-05 07:52 41.11567 27.90958 10498 ft 363 kts 118°
2026-05-05 07:52 41.10238 27.93727 10161 ft 349 kts 118°
2026-05-05 07:53 41.08955 27.96401 9826 ft 338 kts 117°
2026-05-05 07:53 41.07714 27.98990 9490 ft 327 kts 117°
2026-05-05 07:53 41.06514 28.01493 9177 ft 317 kts 117°
2026-05-05 07:53 41.05346 28.03927 8886 ft 308 kts 117°
2026-05-05 07:54 41.04213 28.06286 8598 ft 300 kts 117°
2026-05-05 07:54 41.03109 28.08583 8322 ft 292 kts 117°
2026-05-05 07:54 41.02028 28.10833 8055 ft 287 kts 117°
2026-05-05 07:54 41.00961 28.13052 7790 ft 285 kts 117°
2026-05-05 07:55 40.99899 28.15262 7528 ft 284 kts 117°
2026-05-05 07:55 40.98836 28.17467 7262 ft 283 kts 118°
2026-05-05 07:55 40.97776 28.19661 7008 ft 283 kts 118°
2026-05-05 07:55 40.96724 28.21851 6744 ft 281 kts 115°
2026-05-05 07:56 40.96137 28.24241 6461 ft 269 kts 88°
2026-05-05 07:56 40.96240 28.26668 6229 ft 263 kts 78°
2026-05-05 07:56 40.96509 28.29054 5980 ft 262 kts 77°
2026-05-05 07:56 40.96784 28.31429 5717 ft 261 kts 77°
2026-05-05 07:57 40.97047 28.33803 5464 ft 260 kts 78°
2026-05-05 07:57 40.97300 28.36169 5224 ft 260 kts 78°
2026-05-05 07:57 40.97386 28.38566 5038 ft 268 kts 97°
2026-05-05 07:57 40.96677 28.40874 5016 ft 273 kts 115°
2026-05-05 07:58 40.95734 28.43049 4998 ft 272 kts 116°
2026-05-05 07:58 40.94778 28.45213 4996 ft 272 kts 116°
2026-05-05 07:58 40.93827 28.47376 5004 ft 272 kts 116°
2026-05-05 07:58 40.92878 28.49553 4994 ft 273 kts 116°
2026-05-05 07:59 40.91932 28.51736 4997 ft 275 kts 116°
2026-05-05 07:59 40.90977 28.53942 5014 ft 278 kts 116°
2026-05-05 07:59 40.90019 28.56153 4992 ft 275 kts 116°
2026-05-05 07:59 40.89396 28.58468 4986 ft 263 kts 89°
2026-05-05 08:00 40.89602 28.60832 5002 ft 259 kts 71°
2026-05-05 08:00 40.90161 28.63095 5021 ft 260 kts 67°
2026-05-05 08:00 40.90773 28.65356 4996 ft 261 kts 66°
2026-05-05 08:00 40.91387 28.67580 4996 ft 260 kts 62°
2026-05-05 08:01 40.92451 28.69431 5007 ft 252 kts 38°
2026-05-05 08:01 40.93892 28.70713 5003 ft 249 kts 28°
2026-05-05 08:01 40.95397 28.71800 4992 ft 242 kts 27°
2026-05-05 08:01 40.96836 28.72828 4980 ft 229 kts 26°
2026-05-05 08:02 40.98300 28.73373 4991 ft 214 kts
2026-05-05 08:02 40.99779 28.73324 4995 ft 212 kts
2026-05-05 08:02 41.01248 28.73326 5009 ft 210 kts
2026-05-05 08:02 41.02712 28.73314 4960 ft 211 kts 360°
2026-05-05 08:03 41.04191 28.73287 4693 ft 212 kts 360°
2026-05-05 08:03 41.05657 28.73256 4392 ft 208 kts 359°
2026-05-05 08:03 41.07086 28.73222 4112 ft 203 kts 359°
2026-05-05 08:03 41.08481 28.73189 3857 ft 199 kts 359°
2026-05-05 08:04 41.09845 28.73157 3590 ft 193 kts 359°
2026-05-05 08:04 41.10727 28.73137 3409 ft 190 kts 359°
2026-05-05 08:04 41.12035 28.73106 3157 ft 186 kts 359°
2026-05-05 08:04 41.13313 28.73077 2894 ft 181 kts 359°
2026-05-05 08:05 41.14529 28.73048 2648 ft 168 kts 359°
2026-05-05 08:05 41.15652 28.73021 2472 ft 154 kts 359°
2026-05-05 08:05 41.16727 28.72997 2230 ft 153 kts 359°
2026-05-05 08:05 41.17795 28.72971 2035 ft 154 kts 359°
2026-05-05 08:06 41.18869 28.72957 1882 ft 154 kts
2026-05-05 08:06 41.19946 28.72925 1652 ft 157 kts 358°
2026-05-05 08:06 41.21024 28.72868 1412 ft 153 kts 359°
2026-05-05 08:06 41.22080 28.72868 1164 ft 150 kts
2026-05-05 08:07 41.23101 28.72844 946 ft 143 kts 359°
2026-05-05 08:07 41.24064 28.72839 777 ft 135 kts 359°
2026-05-05 08:07 41.25007 28.72816 639 ft 138 kts 358°
2026-05-05 08:07 41.25975 28.72781 455 ft 140 kts 358°
2026-05-05 08:08 41.26932 28.72762 333 ft 130 kts 358°
2026-05-05 08:08 41.27636 28.72744 333 ft 70 kts 359°
2026-05-05 08:08 41.27923 28.72752 329 ft 27 kts 14°
2026-05-05 08:08 41.28059 28.72828 331 ft 19 kts 27°
2026-05-05 08:09 41.28132 28.72911 332 ft 13 kts 85°
2026-05-05 08:09 41.28063 28.72961 332 ft 13 kts 180°
2026-05-05 08:09 41.27976 28.72964 332 ft 12 kts 177°
2026-05-05 08:09 41.27891 28.72967 328 ft 12 kts 180°
2026-05-05 08:10 41.27809 28.72967 333 ft 12 kts 179°
2026-05-05 08:10 41.27728 28.72969 333 ft 11 kts 179°
2026-05-05 08:10 41.27649 28.72970 333 ft 11 kts 180°
2026-05-05 08:10 41.27573 28.72972 330 ft 11 kts 178°
2026-05-05 08:11 41.27499 28.72975 330 ft 10 kts 178°
2026-05-05 08:11 41.27427 28.72976 329 ft 10 kts 180°
2026-05-05 08:11 41.27358 28.72978 332 ft 10 kts 179°
2026-05-05 08:11 41.27290 28.72979 331 ft 10 kts 179°
2026-05-05 08:12 41.27223 28.72981 329 ft 9 kts 179°
2026-05-05 08:12 41.27159 28.72982 333 ft 9 kts 179°
2026-05-05 08:12 41.27096 28.72984 330 ft 9 kts 178°
2026-05-05 08:12 41.27035 28.72985 332 ft 9 kts 179°
2026-05-05 08:13 41.26967 28.73002 333 ft 11 kts 141°
2026-05-05 08:13 41.26954 28.73109 333 ft 13 kts 88°
2026-05-05 08:13 41.26955 28.73238 333 ft 15 kts 89°
2026-05-05 08:13 41.26957 28.73372 331 ft 14 kts 89°
2026-05-05 08:14 41.26957 28.73388 331 ft 14 kts 90°
2026-05-05 08:14 41.26959 28.73511 331 ft 14 kts 88°
2026-05-05 08:14 41.26960 28.73640 333 ft 14 kts 89°
2026-05-05 08:14 41.26963 28.73764 333 ft 13 kts 89°
2026-05-05 08:15 41.26944 28.73857 333 ft 11 kts 143°
2026-05-05 08:15 41.26868 28.73873 333 ft 12 kts 179°
2026-05-05 08:15 41.26782 28.73874 332 ft 13 kts 178°
2026-05-05 08:15 41.26758 28.73875 330 ft 13 kts 179°
2026-05-05 08:16 41.26695 28.73876 329 ft 14 kts 179°
2026-05-05 08:16 41.26650 28.73877 330 ft 14 kts 179°
2026-05-05 08:16 41.26563 28.73879 329 ft 10 kts 179°
2026-05-05 08:16 41.26489 28.73903 331 ft 11 kts 160°
2026-05-05 08:17 41.26429 28.73938 333 ft 8 kts 140°
2026-05-05 08:17 41.26385 28.73947 333 ft 7 kts 198°
2026-05-05 08:17 41.26360 28.73936 331 ft 3 kts 198°
2026-05-05 08:17 41.26355 28.73934 330 ft 0 kts 198°